YAOGAN-7

Last updated on Tue Jul 01 2025 00:02:29 GMT+0000 (Coordinated Universal Time)

1 36110U 09069A 25181.39207606 .00000318 00000+0 51832-4 0 9999 2 36110 98.0534 63.5946 0026276 92.6043 267.8175 14.77442840837670
UTC large
Height (km)
Speed (km/s)
/
Latitude / Longitude
Inclination (degrees)
Orbital Period (minutes)
Azimuth
Elevation
Range (km)
Doppler Factor

Next 0 passes for location: London (51.5072 / 0.1276)

Sorry there are no passes over London.